"Pseudo-MPEC" for 2023 NM

Created 2023 Jul 10 13:10:27 UT using Find_Orb

Click here for an explanation of pseudo-MPECs

This contains all data from the original MPEC, plus the following Daily Orbit Update, plus six observations sent to me by Eric Christensen that didn't make the DOU. They were probably rejected because they don't fit unless you account for solar radiation pressure. I inquired about this, in hopes of getting them published, but the object is now retracted and therefore no longer handled by MPC at all. (The six observations below with a blank reference field are the ones MPC didn't publish.)

With the CSS precovery data from April and May, this is clearly an artsat. A gravity-only solution has 2.6" mean residuals and some outliers. The area/mass ratio is right in the ballpark of what you'd expect for junk.

I'm hoping this leads to PanSTARRS recoveries from mid-March and/or mid-February, to give us data from just before it entered the Earth-Moon system. It looks as if it passed by most recently in March 2008, at 0.03 AU (max magnitude 23.2, so no hope of precovery from back then). Before that, there were flybys at greater distances in 1995, 1982, and 1969. With just a simple radial force, the orbit is well-determined and the object never passed near the earth. So I assume there were some non-radial forces acting on the object (which is unsurprising, but does complicate the problem of figuring out when it left the Earth-Moon system.) In particular, even a small Yarkovsky force can pile up over five decades, allowing for significant tweaks at the 1969 end.

As the ephems show, the object will get fairly bright (V~17.2) in early October. That may help with physical observations that could give us some idea of which bit of junk we're looking at here. After that, it crawls up to the Earth-Sun L1 point (the one where we can't see it at all), then back out to heliocentric orbit.

 
 Astrometry: 
     K23N00M 1C2023 04 21.34634 13 48 26.29 -19 31 45.4          20.4 GVEN043G96
     K23N00M 1C2023 04 21.35116 13 48 26.53 -19 31 37.9          19.5 GVEN043G96
     K23N00M  C2023 04 21.37913 13 48 28.34 -19 30 49.1          20.1 G      703
     K23N00M  C2023 04 21.38458 13 48 28.82 -19 30 40.1          19.4 G      703
     K23N00M 1C2023 04 25.33410 14 19 57.13 -18 12 22.9          19.1 GVEN043703
     K23N00M 1C2023 04 25.33928 14 19 57.47 -18 12 14.5          19.9 GVEN043703
     K23N00M 1C2023 04 25.34447 14 19 57.88 -18 12 04.1          20.1 GVEN043703
     K23N00M  C2023 05 10.40943 16 59 28.38 -06 57 26.0          20.9 G      G96
     K23N00M  C2023 05 10.41439 16 59 29.71 -06 57 03.0                      G96
     K23N00M  C2023 05 10.41935 16 59 31.14 -06 56 40.1                      G96
     K23N00M  C2023 05 10.42432 16 59 32.51 -06 56 15.8          19.6 G      G96
     K23N00M*1C2023 07 09.33120617 07 00.257-07 31 51.71         18.82GVEN038G96
     K23N00M 1C2023 07 09.33571717 07 02.953-07 31 25.54         20.04GVEN038G96
     K23N00M 1C2023 07 09.34021117 07 05.732-07 30 58.10         19.12GVEN038G96
     K23N00M 1C2023 07 09.34471617 07 08.544-07 30 30.82               VEN038G96
     K23N00M mC2023 07 09.38385717 07 35.497-07 26 29.54         19.10GVEN038I52
     K23N00M mC2023 07 09.38422417 07 35.735-07 26 27.85         19.58GVEN038I52
     K23N00M mC2023 07 09.38459117 07 36.073-07 26 24.61         20.33GVEN038I52
     K23N00M mC2023 07 09.38496517 07 36.286-07 26 22.56         18.78GVEN038I52
     K23N00M KC2023 07 09.84678617 17 53.65 -06 52 02.1          19.5 GXEN043595
     K23N00M KC2023 07 09.85833117 18 00.57 -06 51 02.1          19.2 GXEN043595
     K23N00M IC2023 07 09.86214217 18 02.62 -06 50 30.1          19.5 GVEN038L01
     K23N00M bC2023 07 09.86412517 18 03.80 -06 50 19.8          19.7 GVEN038L01
     K23N00M bC2023 07 09.86616117 18 04.97 -06 50 09.3          19.3 GVEN038L01
     K23N00M bC2023 07 09.86819717 18 06.20 -06 49 58.4          19.4 GVEN038L01
     K23N00M KC2023 07 09.86987517 18 07.42 -06 50 01.6          19.5 GXEN043595
     K23N00M bC2023 07 09.87017917 18 07.35 -06 49 48.0          19.6 GVEN038L01
     K23N00M KC2023 07 09.94374917 19 14.136-06 45 03.82         19.0 GVEN038J95
     K23N00M KC2023 07 09.95084717 19 18.730-06 44 24.14         19.1 GVEN038J95
     K23N00M KC2023 07 09.95222317 19 19.610-06 44 17.38         19.4 GVEN038J95
     K23N00M KC2023 07 09.95358717 19 20.542-06 44 08.95         18.9 GVEN038J95
     K23N00M KB2023 07 09.97402517 20 46.196-06 09 20.78         19.0 GXEN038Y05
     K23N00M KC2023 07 09.97655217 19 14.94 -06 39 28.4          18.8 GVEN038104
     K23N00M KC2023 07 09.98041617 19 17.43 -06 39 05.4                VEN038104
     K23N00M KB2023 07 09.98316017 20 50.469-06 08 34.70         18.7 GXEN038Y05
     K23N00M KB2023 07 09.99215617 20 54.553-06 07 49.44         18.4 GXEN038Y05
     K23N00M KC2023 07 09.99441917 19 26.80 -06 37 42.1          19.0 GVEN038104
     K23N00M KC2023 07 10.15506417 23 28.86 -06 21 59.2          20.1 VuEN043H21
     K23N00M KC2023 07 10.15787217 23 30.41 -06 21 44.5          19.6 VuEN043H21
     K23N00M KC2023 07 10.16067717 23 31.90 -06 21 28.6          19.9 VuEN043H21
     K23N00M KC2023 07 10.16348317 23 33.42 -06 21 13.6          20.1 VuEN043H21

Station data:
(104) San Marcello Pistoiese  (N44.064178 E10.803750)  Italy.  Observers P.
   Bacci, M. Maestripieri. Measurers P. Bacci, L. Tesi, G. Fagioli. 0.60-m
   reflector + CCD.
(595) Farra d'Isonzo  (N45.915731 E13.525780)  Italy.  Observers S. Aschi, E.
   Pettarin, G. Panterotto. Measurers S. Aschi, E. Pettarin. 0.40-m f/5.15
   reflector + CCD.
(703) Catalina Sky Survey  (N32.417003 W110.732640)  US/Arizona.  Observer E.
   J. Christensen. 0.68 m Schmidt + 10K CCD.
(G96) Mt. Lemmon Survey  (N32.442751 W110.788720)  US/Arizona.  Observer E.
   J. Christensen. 1.5-m reflector + 10K CCD.
(H21) Astronomical Research Observatory, Westfield  (N39.483054 W87.968270)
   US/Illinois.  Observer R. Holmes. Measurers S. Foglia, L. Buzzi, T.
   Linder, R. Holmes. 0.76-m f/3.0 astrograph + CCD0.81-m f/4.0 astrograph +
   CCD0.61-m f/4.5 astrograph + CCD0.40-m f/5.32 astrograph + CCD.
(I52) Steward Observatory, Mt. Lemmon Station  (N32.442544 W110.788920)
   US/Arizona.  Observers T. A. Pruyne, B. M. Africano, E. J. Christensen, G.
   A. Farneth, D. C. Fuls, A. R. Gibbs, A. D. Grauer, H. Gröller, J. A.
   Johnson, R. A. Kowalski, S. M. Larson, G. J. Leonard, D. Rankin, R. L.
   Seaman, F. C. Shelly, K. W. Wierzchoś. 1.0-m prime focus + CCD.
(J95) Great Shefford  (N51.474969 W1.447003)  UK/England.  Observer P.
   Birtwhistle. 0.41-m f/6.3 Schmidt-Cassegrain + CCD.
(L01) Višnjan Observatory, Tičan  (N45.290897 E13.749300)  Croatia.
   Observers K. Korlević, D. Pujagic, V. Dobos. Measurers D. Pujagic, K.
   Korlević. 1.0-m f/2.9 reflector + CCD.
(Y05) SONEAR Wykrota-CEAMIG, Serra da Piedade  (S19.824239 W43.690000)
   Brazil.  Observer C. Jacques. 0.45-m f/2.9 reflector + CMO.

Orbital elements:  2023 NM (geocentric)
   Perigee 2023 Jul 24.8307159 +/- 0.000577 TT = 19:56:13.85 (JD 2460150.3307159)
Epoch 2023 Jul 10.0 TT; AMR 0.0116 +/- 0.000296 m²/kg           Find_Orb
M 284.3004950129 +/- 0.0026         (J2000 equator)
n   5.1042381060 +/- 4.65e-5        Peri.   86.3651447 +/- 0.0017
a721079.06880 +/- 4.38              Node   278.6623413 +/- 0.00014
e   0.262303155 +/- 1.1e-5          Incl.   18.9624755 +/- 0.00009
P  70.53d                  H 29.85  G  0.15   U  6.0
q 531937.75387 +/- 10.8    Q 910220.38372 +/- 4.63
From 41 observations 2023 Apr. 21-July 10; mean residual 0".347

Orbital elements:  2023 NM (heliocentric,  before temporary capture) 
   Perihelion 2022 Jan 6.4953280 +/- 0.00484 TT = 11:53:16.34 (JD 2459585.9953280)
Epoch 2022 Jan  1.0 TT; AMR 0.0116 +/- 0.000296 ㎡/kg   Earth MOID: 0.0191
M 354.9466697413 +/- 0.0044         (J2000 ecliptic)             Find_Orb
n   0.9195684431 +/- 1.15e-7        Peri.  204.0645252 +/- 0.010
a   1.0473214777 +/- 8.74e-8        Node   288.6039549 +/- 0.0058
e   0.039862881 +/- 8.24e-7         Incl.    0.2870526 +/- 0.000011
P   1.07/391.48d           H 29.85  G  0.15   U  2.3
q 1.0055722262 +/- 8.86e-7    Q 1.0890707291 +/- 8.47e-7
From 41 observations 2023 Apr. 21-July 10; mean residual 0".347
Residuals in arcseconds: 
230421 G96 .328- 2.5m-    230709 G96 .055- .035+    230709 J95 .043- .089+
230421 G96 .453- .168+    230709 I52 .138+ .356+    230709 J95 .283- .771-
230421 703 .200- .601+    230709 I52 .423- .246-    230709 J95 .354+ .094+
230421 703 .057+ .764-    230709 I52 .496+ .702+    230709 Y05 .129+ .178+
230425 703 .498+ .058-    230709 I52 .530- .415+    230709 104 .411+ .207+
230425 703 .149+ .590-    230709 595 .171- .244+    230709 104 .114+ .365+
230425 703 .618+ .534+    230709 595 .047- .306+    230709 Y05 .035+ .402+
230510 G96 .084- .500+    230709 L01 .389- .389+    230709 Y05 .195+ .089-
230510 G96 .550- .303+    230709 L01 .136- .257+    230709 104 .695+ .253+
230510 G96 .218+ .156-    230709 L01 .471- .019+    230710 H21 .259- .401+
230510 G96 .245- .579+    230709 L01 .112+ .155+    230710 H21 .180+ .116-
230709 G96 .395- .446+    230709 595 .117+ .039+    230710 H21 .220- .532+
230709 G96 .545- .411-    230709 L01 7.5m- .052+    230710 H21 .157- .224+
230709 G96 .091- .017-    230709 J95 .192+ .445-

Ephemerides (geocentric):
Date (UTC)   RA             Dec           delta elong SM  mag " sig PA
---- -----  ------------   ------------  ------ ----- --  --- --------
2023 01 01  09 07 00.547   +17 48 54.34  .03232 146.0    23.8 9.39
2023 01 02  09 08 52.792   +17 32 21.63  .03171 146.6    23.8 9.40
2023 01 03  09 10 43.929   +17 15 26.10  .03111 147.1  M 23.7 9.41
2023 01 04  09 12 33.949   +16 58 07.24  .03053 147.6  M 23.6 9.42
2023 01 05  09 14 22.820   +16 40 24.62  .02995 148.1  M 23.6 9.42
2023 01 06  09 16 10.489   +16 22 17.94  .02939 148.6  M 23.5 9.42
2023 01 07  09 17 56.882   +16 03 46.98  .02884 149.1  M 23.5 9.42
